User: anonymous   Login
Location: Albany
(35.0000°S, 118.0000°E)
Time: 03:22:59
(UTC-05:00)
Language:

Cosmos 1758 Rocket - Orbit

View from above orbital plane
View from above orbital plane
View from above satellite
View from above satellite

Ground track
Ground track

The orbit data is extracted from the following two-line orbital elements,

1 16792U 86046B   15026.78068394  .00000264  00000-0  29678-4 0  6881
2 16792 082.4848 303.1323 0022797 285.4546 126.4562 14.82794131545580
Epoch (UTC): 26 January 2015 18:44:11
Eccentricity: 0.0022797
inclination: 82.4848°
perigee height: 604 km
apogee height: 636 km
right ascension of ascending node: 303.1323°
argument of perigee: 285.4546°
revolutions per day: 14.82794131
mean anomaly at epoch: 126.4562°
orbit number at epoch: 54558

The dashed part of the orbit path shows where the satellite is in the earth's shadow,  

DLR